Regional Weather Roundup
Issued by NWS

Home | Current Version | Previous Version | Text Only | Print | Product List | Glossary Off
Versions: 1 2 3 4 5 6 7 8 9 10 11 12 13 14 15 16 17 18 19 20 21 22 23 24 25 26 27 28 29 30 31 32 33 34 35 36 37 38 39 40 41 42 43 44 45 46 47 48 49 50

000
ASUS45 KPSR 232110
RWRAZ

ARIZONA HOURLY REGIONAL WEATHER ROUNDUP
NATIONAL WEATHER SERVICE PHOENIX AZ
200 PM MST THU MAR 23 2017

NOTE: FAIR INDICATES FEW OR NO CLOUDS BELOW 12,000 FEET WITH NO
SIGNIFICANT WEATHER AND/OR OBSTRUCTIONS TO VISIBILITY.

AZZ001>003-036-232200-
NORTHWEST ARIZONA

CITY           SKY/WX    TMP DP  RH WIND       PRES   REMARKS
BULLHEAD CITY  CLOUDY    70  34  26 CALM      29.96S
KINGMAN        FAIR      59  24  26 W17       29.99R
$$

AZZ004>008-015-016-018-232200-
NORTH CENTRAL ARIZONA

CITY           SKY/WX    TMP DP  RH WIND       PRES   REMARKS
GRAND CANYON   FLURRIES  42  28  57 W8G20     29.92S
WILLIAMS       MIX PCPN  34  32  93 W10G17    29.98R WCI  26
PRESCOTT       FAIR      49  34  56 SW21G31   29.97S
FLAGSTAFF      LGT SNOW  34  32  92 SW14G22   29.95R FOG     WCI  25
PAYSON         PTSUNNY   45  39  81 SW7G16    30.02S
PAGE           CLOUDY    57 N/A N/A W16G24    29.83S
$$

AZZ009>014-017-232200-
NORTHEAST ARIZONA

CITY           SKY/WX    TMP DP  RH WIND       PRES   REMARKS
WINSLOW        LGT RAIN  50  34  54 W22G33    29.91R
SAINT JOHNS    PTSUNNY   49  29  46 W21       29.89F
WINDOW ROCK    CLOUDY    43  25  49 W17G23    29.86F
SHOW LOW       PTSUNNY   39  32  75 SW17      29.96S WCI  30
$$

AZZ023-232200-
GREATER PHOENIX AREA

CITY           SKY/WX    TMP DP  RH WIND       PRES   REMARKS
PHOENIX        PTSUNNY   70  38  31 W18G26    29.97S
BUCKEYE        PTSUNNY   68  36  30 W12G18    29.99F
GLENDALE       PTSUNNY   70  34  26 MISG      29.99S
LUKE AFB       FAIR      69  35  29 W18G26    29.97S
DEER VALLEY    PTSUNNY   65  39  38 W16G25    29.97S
SCOTTSDALE     PTSUNNY   65  36  34 W17G24    29.99S
MESA-FALCON    MOSUNNY  N/A N/A N/A SW17G25   29.95F
MESA-GATEWAY   PTSUNNY   68  36  30 W15G25    29.99F
CHANDLER       PTSUNNY   68  36  30 SW18      29.98F
$$

AZZ027-028-232200-
SOUTHWEST MARICOPA COUNTY AND PINAL COUNTY

CITY           SKY/WX    TMP DP  RH WIND       PRES   REMARKS
CASA GRANDE    NOT AVBL
GILA BEND      SUNNY     70  31  24 W22       30.00F
$$

AZZ503-504-507>509-232200-
SOUTHEAST ARIZONA

CITY           SKY/WX    TMP DP  RH WIND       PRES   REMARKS
TUCSON         PTSUNNY   66  28  24 NW15G24   30.01F
DAVIS-MONTHAN  FAIR      63  31  30 W15       30.00F
RYAN FIELD     SUNNY     66  32  28 W20G25    30.03S
NOGALES        FAIR      62  24  23 SW18G29   30.03S
SIERRA VISTA   FAIR      59  20  22 W22G29    30.03S
DOUGLAS        FAIR      63  22  20 W22G33    29.99F
SAFFORD        FAIR      61  38  42 NW22      29.94S
$$

AZZ020-021-025-026-031-232200-
SOUTHWEST ARIZONA

CITY           SKY/WX    TMP DP  RH WIND       PRES   REMARKS
YUMA           FAIR      73  37  27 W16       30.03F
$$

CAZ031-033-041-043-047-048-061-232200-
SOUTHERN CALIFORNIA

CITY           SKY/WX    TMP DP  RH WIND       PRES   REMARKS
DOWNTOWN L.A.  FAIR      67  43  41 VRB6      30.12S
L.A. AIRPORT   FAIR      65  44  46 W15       30.13S
SAN DIEGO      FAIR      65  44  46 W13       30.18F
BURBANK        FAIR      67  35  30 CALM      30.10F
ONTARIO        FAIR      67  40  37 VRB7      30.10F
RIVERSIDE      FAIR      67  41  38 W9G20     30.11F
PALM SPRINGS   FAIR      77  34  21 NW20G28   30.02F
EL CENTRO NAS  FAIR      77  29  17 NW14G21   30.03F
IMPERIAL       FAIR      76  38  25 NW10      30.01F
BLYTHE         FAIR      75  30  19 W16G23    29.99S
NEEDLES        PTSUNNY   73  32  22 N7G16     29.96R
$$

NVZ020-UTZ003-232200-
SOUTHERN NEVADA-UTAH

CITY           SKY/WX    TMP DP  RH WIND       PRES   REMARKS
LAS VEGAS      PTSUNNY   70  27  20 N18G30    29.94F
SALT LAKE CITY LGT SNOW  34  32  92 NE5       29.92R FOG     WCI  30
$$

NMZ009-TXZ055-232200-
NEW MEXICO-WEST TEXAS

CITY           SKY/WX    TMP DP  RH WIND       PRES   REMARKS
ALBUQUERQUE    LGT RAIN  52  31  44 W28G49    29.79R
EL PASO        BLWGDUST  75  25  15 W43G58    29.75R VSB 1/2
$$


........................KEY........................
SKY/WX - SKY CONDITION/WEATHER
TMP    - TEMPERATURE IN FAHRENHEIT
DP     - DEW POINT IN FAHRENHEIT
RH     - RELATIVE HUMIDITY IN PERCENT
WIND   - DIRECTION AND SPEED IN MILES PER HOUR (MPH)
VRB    - VARIABLE WIND DIRECTION
PRES   - MEAN SEA LEVEL PRESSURE IN INCHES OF MERCURY
         F - FALLING PRESSURE   R - RISING PRESSURE
         S - STEADY PRESSURE
VSB    - VISIBILITY IN MILES
HX     - HEAT INDEX IN FAHRENHEIT
WCI    - WIND CHILL INDEX IN FAHRENHEIT
TC     - TEMPERATURE IN CELSIUS WHICH IS ALSO KNOWN AS
         TEMPERATURE IN CENTIGRADE
AFB    - AIR FORCE BASE
         LUKE AFB IS LUKE AIR FORCE BASE
         DAVIS-MONTHAN IS DAVIS-MONTHAN AIR FORCE BASE
NAS    - NAVAL AIR STATION
         EL CENTRO NAS IS EL CENTRO NAVAL AIR STATION
N/A    - NOT AVAILABLE




USA.gov is the U.S. government's official web portal to all federal, state and local government web resources and services.